Location: Trois-Rivi�res
(46.3500°N, 72.5500°W)
Time: 17:12:56
(UTC-04:00)

Vanguard 3 - Visible Passes

Search period start: 22 October 2017 00:00
Search period end: 01 November 2017 00:00
Orbit: 510 x 3263 km, 33.3° (Epoch: 21 October)

Date Brightness Start Highest point End Pass type
(mag) Time Alt. Az. Time Alt. Az. Time Alt. Az.
22 Oct 10.2 03:37:23 26° S 03:40:05 28° SSE 03:48:45 10° ESE visible
22 Oct 9.5 05:41:59 12° SW 05:53:00 37° S 06:00:11 10° ESE visible
23 Oct 10.6 02:27:52 21° SE 02:27:52 21° SE 02:34:23 10° ESE visible
23 Oct 9.8 04:32:27 26° SSW 04:38:40 36° S 04:47:12 10° ESE visible
23 Oct 9.4 06:40:25 10° WSW 06:51:09 36° S 06:57:39 10° SE visible
24 Oct 11.1 01:18:18 10° ESE 01:18:18 10° ESE 01:18:21 10° ESE visible
24 Oct 10.1 03:22:53 32° SSE 03:23:55 32° SSE 03:33:41 10° ESE visible
24 Oct 9.5 05:27:28 18° SW 05:37:06 40° S 05:45:02 10° ESE visible
25 Oct 10.6 02:13:16 24° SE 02:13:16 24° SE 02:19:25 10° ESE visible
25 Oct 9.8 04:17:51 33° SSW 04:22:34 40° S 04:32:01 10° ESE visible
25 Oct 9.4 06:23:25 10° WSW 06:35:18 38° SSW 06:42:27 10° SE visible
26 Oct 11.1 01:03:36 10° ESE 01:03:36 10° ESE 01:03:50 10° ESE visible
26 Oct 10.1 03:08:11 37° SSE 03:08:11 37° SSE 03:18:27 10° ESE visible
26 Oct 9.6 05:12:46 24° SW 05:21:07 43° S 05:29:49 10° ESE visible
27 Oct 10.6 01:58:30 24° ESE 01:58:30 24° ESE 02:04:10 10° E visible
27 Oct 9.8 04:03:04 40° SSW 04:06:21 44° S 04:16:42 10° ESE visible
27 Oct 9.5 06:07:39 13° WSW 06:19:21 40° SSW 06:27:11 10° SE visible
28 Oct 11.2 00:48:46 10° E 00:48:46 10° E 00:48:47 10° E visible
28 Oct 10.1 02:53:21 39° SSE 02:53:21 39° SSE 03:03:04 10° E visible
28 Oct 9.6 04:57:55 30° SW 05:04:58 46° S 05:14:30 10° ESE visible
29 Oct 10.7 01:43:36 24° ESE 01:43:36 24° ESE 01:48:43 10° E visible
29 Oct 9.8 03:48:10 46° SSW 03:50:00 47° S 04:01:17 10° ESE visible
29 Oct 9.6 05:52:45 17° WSW 06:03:16 41° SSW 06:11:50 10° SE visible
30 Oct 10.1 02:38:25 40° SE 02:38:25 40° SE 02:47:32 10° E visible
30 Oct 9.7 04:42:59 36° SW 04:48:43 47° S 04:59:04 10° ESE visible
30 Oct 9.8 06:49:31 10° W 07:01:02 30° SSW 07:08:28 10° SSE visible
31 Oct 10.8 01:28:39 22° ESE 01:28:39 22° ESE 01:33:05 10° E visible
31 Oct 9.8 03:33:13 49° S 03:33:32 49° S 03:45:45 10° ESE visible
31 Oct 9.7 05:37:48 22° WSW 05:47:03 41° SSW 05:56:21 10° SE visible
